CAPE
16 15 1 0 0 0 0 0 0 0 0 0 0 0 0 0 0 0 0 0 0 0 0 3 6 0 0 10 56 68 110 332 68 42 71 106 61 104 61 78 41 88 121 56
25 14 1 0 0 0 0 0 0 0 0 7 0 0 0 0 0 1 2 4 6 15 21 16 5 9 7 0 8 71 7 87 130 91 95 81 47 52 119 89 53 36 96 79
15 8 2 0 0 0 0 1 7 0 0 0 0 0 0 3 7 11 4 12 15 22 23 39 30 53 34 34 95 88 24 8 62 112 30 89 115 91 131 145 105 54 88 30
12 5 0 0 0 0 0 11 7 3 9 6 2 3 1 5 4 3 8 24 14 4 7 6 49 71 104 93 43 35 126 30 2 37 48 52 2 16 107 115 56 13 0 4
13 5 0 0 0 0 14 3 4 0 10 5 2 0 2 0 5 0 15 1 12 13 15 25 30 114 146 97 126 133 110 16 31 0 148 70 0 44 5 9 0 3 8 9
3 7 0 0 0 0 12 1 1 16 1 7 7 11 3 2 0 1 4 17 19 21 37 37 12 18 54 93 119 67 49 64 34 0 188 57 2 8 17 6 11 18 55 66
4 10 0 0 0 0 18 14 7 19 12 4 3 1 0 1 2 6 7 13 20 13 36 5 7 78 132 188 130 79 102 42 28 15 174 97 3 0 12 11 41 49 44 52
26 16 10 7 3 0 26 7 20 18 20 2 3 2 3 3 3 8 13 15 22 5 14 49 62 116 134 194 142 90 33 51 11 68 113 4 5 24 58 40 53 14 16 14
60 40 28 13 19 2 31 26 31 25 45 7 0 2 3 12 19 23 22 22 11 20 40 55 38 19 21 87 62 24 34 65 28 36 13 18 135 62 15 3 69 8 8 6
46 47 37 23 24 15 33 22 28 25 42 15 5 20 20 7 16 33 37 25 31 30 57 59 127 43 97 75 70 50 78 57 57 107 84 144 67 17 6 1 37 16 4 3
41 47 53 35 32 28 39 36 29 23 18 23 5 2 6 14 20 27 51 38 56 35 47 73 38 10 155 118 99 80 62 67 109 110 99 95 4 67 99 11 2 5 4 2
51 55 33 29 35 29 15 27 29 15 20 17 5 2 2 3 5 27 24 30 18 39 49 43 31 51 166 148 110 151 121 75 181 85 155 10 7 4 6 6 8 8 4 4
70 56 24 20 20 41 23 35 19 31 44 12 8 5 3 0 0 5 23 30 28 46 37 87 46 59 105 120 80 153 106 13 88 171 9 7 7 7 5 6 6 3 3 6
67 44 33 31 38 48 24 61 58 37 39 19 28 0 0 0 0 0 3 13 39 30 33 47 51 47 59 99 71 54 18 33 11 9 2 3 7 27 22 11 8 9 13 11
38 37 40 29 34 39 76 114 57 36 38 46 37 11 2 0 0 1 8 17 30 35 29 32 55 47 127 97 80 13 6 10 12 24 9 8 12 15 22 14 10 19 7 7
46 50 28 23 20 47 74 1 38 24 71 70 29 26 0 0 0 3 20 40 17 11 29 34 50 36 49 26 86 14 11 7 20 9 19 7 12 18 17 11 7 10 7 8
37 24 15 15 39 99 77 54 5 16 2 16 58 30 19 0 12 93 64 23 16 10 33 39 36 33 37 53 93 16 7 12 31 24 33 14 22 10 3 1 1 0 0 0
27 12 22 46 39 32 45 45 6 4 2 29 58 38 21 4 88 130 64 26 16 25 48 48 44 59 46 33 9 8 12 18 12 13 16 6 5 1 0 0 0 0 1 1
34 37 39 50 30 20 8 5 9 11 19 60 36 57 110 107 169 191 119 80 67 39 57 43 35 43 30 6 7 4 5 5 13 12 3 1 1 0 0 0 0 1 1 2
40 41 6 15 12 12 8 30 40 57 63 56 31 74 138 118 120 69 91 103 50 47 51 26 27 22 4 4 3 4 2 5 11 10 3 2 3 3 2 1 1 3 3 3
18 19 28 17 9 12 75 31 46 39 36 33 20 61 125 92 99 105 78 50 45 18 43 29 54 14 5 2 2 2 1 1 2 3 4 3 2 2 3 3 4 4 2 2
9 40 23 28 58 34 13 22 12 20 5 22 33 30 54 68 69 102 66 26 28 13 38 28 67 7 6 4 3 2 2 2 3 2 3 2 1 2 3 4 6 5 5 5
35 27 23 31 17 27 11 10 13 26 27 43 44 19 28 28 49 52 56 13 33 99 84 59 9 5 3 5 7 4 4 3 4 4 3 3 4 3 3 6 4 5 4 3
49 29 12 16 9 14 27 46 76 52 45 48 52 27 31 62 22 12 144 167 149 70 82 15 7 5 4 1 2 4 4 4 5 5 5 4 4 4 4 3 2 1 0 0
58 14 11 10 20 7 12 8 6 8 14 18 61 55 50 51 79 21 21 25 78 49 23 9 10 5 6 5 6 5 5 5 5 6 5 5 4 4 6 5 4 0 0 0
2 2 2 5 6 4 13 67 27 9 24 18 36 50 46 32 23 10 13 11 47 8 9 11 9 5 5 6 6 7 6 7 8 8 7 5 4 4 4 1 0 0 0 0
3 8 3 11 13 26 13 17 10 3 9 78 98 26 35 4 8 3 2 11 10 10 13 14 6 8 8 6 6 6 7 7 8 7 5 6 3 1 0 1 1 0 0 0
CIN
-4 -2 -1 0 0 0 0 0 0 0 0 0 0 0 0 0 0 0 0 0 0 0 0 0 0 0 0 -1 0 0 0 0 -2 0 -0 -0 -1 -0 -1 -1 -0 0 0 -2
-2 -2 -2 0 0 0 0 0 0 0 0 0 0 0 0 0 0 0 0 0 0 0 0 0 0 0 0 0 -0 -0 0 -0 0 0 -0 -1 0 -0 -0 -1 -3 -6 0 -1
-3 -6 -10 0 0 0 -0 0 0 0 0 0 0 0 0 0 0 0 0 0 0 0 0 0 0 0 -1 -1 -0 -28 -1 0 0 0 -17 -1 0 0 -1 0 0 -0 0 -0
-2 -6 0 0 0 0 -1 0 0 0 0 0 0 0 0 0 0 0 0 -1 0 -0 0 0 -2 0 -0 -2 -1 -3 -0 -1 -0 0 0 -1 -1 -3 -0 0 0 -1 -3 -0
-1 -5 0 0 0 0 -1 0 0 0 0 0 0 0 0 0 0 0 0 -0 0 0 0 0 -9 0 0 0 -0 -0 0 0 0 0 0 0 -3 -28 -0 -0 -0 0 0 0
0 -1 0 0 0 0 0 0 0 0 0 0 0 0 -0 0 0 -0 0 -0 0 0 0 0 -6 -16 -26 -1 0 0 0 0 0 0 0 -0 -10 -3 -0 -1 -0 -0 -0 0
-1 0 0 0 0 0 0 0 0 0 0 0 0 0 0 0 0 0 0 0 0 0 0 0 -7 -20 -4 0 0 0 0 0 -1 0 0 0 -1 -0 -2 -2 0 -0 -1 -0
-0 -0 -1 -2 -4 0 -1 0 0 0 0 0 0 0 0 0 0 0 0 0 0 0 0 -0 -1 0 0 0 0 0 -0 -0 0 0 -0 -4 -1 -2 -0 -0 -1 -0 0 0
0 -0 -1 -3 -1 -7 -2 0 0 0 0 0 0 0 0 0 0 0 0 0 0 0 0 -1 -3 -19 -5 -0 0 -1 -1 0 0 0 -5 -2 -0 -4 -27 -23 0 0 0 0
-1 -0 -1 -2 -1 -10 -2 0 0 0 0 0 0 0 0 0 0 0 -0 0 0 0 0 -0 0 -1 -0 -1 -0 -0 0 -0 0 -0 0 0 -8 -25 -39 0 0 0 0 0
-2 -1 0 0 0 -1 -3 -0 0 0 0 0 0 0 0 0 0 0 0 0 0 0 0 0 -5 0 -0 -0 -1 -2 -0 -0 0 -0 -0 -0 0 -8 -3 0 0 0 0 0
-2 -0 -2 -2 -1 -1 -8 0 0 0 0 0 0 0 0 0 0 0 0 0 -0 0 -0 0 0 0 0 0 -1 -1 -1 -2 0 -2 -0 0 0 0 0 0 0 0 0 0
-2 -1 -4 -6 -4 -2 -7 0 0 0 0 0 0 0 0 0 0 0 0 0 0 0 -1 0 0 -0 -0 0 -6 0 0 -8 0 0 0 0 0 0 0 0 0 0 0 0
-2 -4 -2 -0 -0 0 -5 0 0 0 0 0 0 0 0 0 0 0 0 0 0 0 0 0 0 0 0 0 0 0 -0 -1 0 0 0 0 0 0 0 0 0 0 0 0
-5 -2 -0 -0 -0 -1 0 0 0 0 0 0 0 0 0 0 0 0 0 0 0 0 0 0 0 0 0 0 0 0 0 0 0 0 0 0 0 0 0 0 0 0 0 0
-1 -1 -0 -3 -1 -1 0 0 0 -0 -0 0 0 -0 0 0 0 0 0 0 0 -0 0 0 0 0 -0 0 -1 0 0 0 0 0 0 0 0 0 0 0 0 0 0 0
-4 -1 -3 -1 -0 0 0 -0 0 -0 -1 0 0 0 0 0 0 0 -4 -0 0 0 0 0 0 0 0 -0 0 0 0 0 0 0 0 0 0 0 0 0 0 0 0 0
0 0 0 -0 -1 -2 0 0 -1 0 0 0 0 0 0 -10 0 0 0 0 0 0 0 0 0 0 0 -0 0 0 0 0 0 0 0 0 0 0 0 0 0 0 0 0
0 -0 -0 0 0 -1 0 -0 0 0 0 0 0 -3 0 -0 0 0 0 0 0 0 0 0 0 0 -0 0 0 0 0 0 0 0 0 0 0 0 0 0 0 0 0 0
-0 0 0 0 0 -1 0 0 0 0 0 0 -8 0 0 0 0 0 0 0 0 0 -0 0 0 -1 0 0 0 0 0 0 0 0 0 0 0 0 0 0 0 0 0 0
-0 0 0 -0 -0 0 0 0 0 0 0 0 -5 -3 0 0 0 0 0 0 0 0 -7 0 -17 -2 0 0 0 0 0 0 0 0 0 0 0 0 0 0 0 0 0 0
0 0 0 0 0 0 0 0 0 0 0 0 -2 -6 -0 0 0 -0 0 0 0 0 -5 -0 -0 0 0 0 0 0 0 0 0 0 0 0 -0 -0 0 0 0 0 0 0
0 0 0 0 0 0 0 0 0 0 0 0 0 0 0 0 0 0 0 0 -0 0 0 -3 0 0 0 0 0 0 0 0 0 0 0 0 0 0 0 0 0 0 0 0
0 0 0 0 0 0 0 0 0 0 0 0 0 0 0 0 0 -0 0 0 0 0 0 -1 0 0 0 0 0 0 0 0 0 0 0 0 0 0 0 0 0 0 0 0
0 -2 -0 0 0 0 0 0 0 0 -0 -0 0 0 0 0 0 0 0 0 -0 0 -0 0 0 0 0 0 0 0 0 0 0 0 0 0 0 0 0 0 0 0 0 0
0 0 0 0 0 0 0 0 0 -0 0 0 0 0 0 0 0 0 0 0 -0 0 0 0 0 0 0 0 0 0 0 0 0 0 0 0 0 0 0 0 0 0 0 0
0 0 0 0 0 0 0 0 0 0 0 0 0 0 0 0 0 0 0 0 0 0 0 0 0 0 0 0 0 0 0 0 0 0 0 0 0 0 0 0 0 0 0 0
Wind_Speed
5 6 3 1 1 5 8 2 1 3 6 1 2 3 2 2 2 1 2 4 5 6 9 13 14 18 20 6 10 13 11 9 14 20 17 16 9 14 13 7 7 6 6 2
8 6 3 0 2 6 3 1 3 2 5 2 3 4 5 0 2 1 1 3 3 8 10 9 9 13 14 19 12 1 7 7 11 17 14 14 12 17 10 6 3 11 7 1
9 6 3 0 0 4 6 0 2 3 1 3 6 5 3 6 2 3 2 3 4 6 8 10 9 16 12 10 11 8 0 6 15 16 7 4 10 20 11 13 5 7 9 11
10 7 4 2 2 3 6 1 2 2 3 4 5 7 5 5 3 5 4 1 5 4 6 14 12 13 12 17 16 13 6 10 14 21 25 7 2 16 15 16 11 8 11 13
10 7 5 3 1 5 4 2 1 4 6 7 4 3 3 2 4 3 3 4 8 10 12 12 16 14 15 11 12 5 4 9 11 19 23 11 8 15 13 8 9 10 10 10
11 8 6 4 3 6 3 1 2 6 7 7 6 5 3 3 3 4 6 6 10 14 13 12 18 19 20 18 17 16 6 5 6 13 18 8 5 18 18 8 5 6 7 13
12 11 8 6 6 6 2 1 2 1 4 6 4 3 4 6 6 7 8 8 11 13 15 19 21 22 23 22 20 18 9 10 3 13 16 12 7 5 1 4 1 9 10 12
13 11 9 8 7 7 5 2 3 2 3 1 5 7 8 6 7 8 8 9 9 12 16 13 12 13 16 18 19 18 13 7 4 8 10 8 12 6 3 5 7 12 10 12
12 11 10 8 10 6 7 1 3 2 4 4 2 5 4 6 5 4 3 3 9 7 3 6 9 7 10 4 9 16 11 12 4 10 4 5 9 8 4 7 4 12 12 13
12 11 11 9 10 9 7 1 3 1 2 1 4 2 5 3 3 6 5 8 7 0 4 7 6 6 14 7 11 10 9 9 13 7 4 9 14 9 8 7 6 11 11 11
14 12 10 10 10 11 7 1 4 1 3 3 4 4 5 4 4 5 7 6 4 5 5 5 5 4 3 4 4 7 6 5 4 5 3 3 20 6 7 7 5 9 10 9
11 11 10 10 9 13 11 1 3 2 3 5 5 8 10 10 11 8 5 5 4 3 5 5 5 6 6 9 2 5 3 5 4 8 6 11 12 11 9 9 9 10 9 9
11 12 10 9 7 15 14 2 3 2 3 7 8 6 6 9 10 9 6 4 4 3 3 5 4 6 7 7 4 4 3 13 4 3 8 10 10 10 10 10 11 10 10 10
13 11 10 9 9 12 14 5 5 5 3 3 1 3 4 3 7 9 12 12 12 9 7 5 5 6 7 5 7 5 6 8 8 5 5 5 10 9 8 10 10 11 11 11
13 12 11 10 9 9 8 7 5 6 7 4 5 5 10 5 6 7 9 9 9 7 3 3 5 5 6 4 4 6 7 5 5 4 7 5 7 8 10 9 11 9 11 12
12 12 11 10 10 8 4 2 6 7 3 4 4 4 5 8 7 9 9 6 4 2 3 4 5 7 5 5 2 5 7 7 6 3 8 11 9 9 8 9 10 11 12 11
12 11 10 10 8 7 4 2 3 9 5 2 4 5 5 7 7 5 4 3 3 5 3 5 6 7 3 3 3 6 8 8 4 1 3 7 7 6 6 8 9 10 11 10
11 10 9 8 6 1 4 4 4 8 3 3 4 4 3 8 6 5 4 4 4 5 5 3 5 6 3 1 5 5 5 5 7 8 7 9 6 5 5 5 6 8 9 9
11 10 7 2 2 3 2 8 11 2 3 3 4 4 2 3 4 3 4 4 4 3 4 4 4 3 2 4 6 5 5 4 4 4 4 6 6 5 5 5 6 7 8 8
11 4 3 4 4 22 14 4 3 3 5 4 4 5 2 4 4 4 3 4 4 3 5 2 3 1 7 5 5 5 5 3 4 2 2 2 3 5 6 7 7 8 8 9
2 4 1 5 20 4 4 4 5 5 4 6 5 7 5 6 4 5 4 2 3 3 4 4 4 4 5 6 5 5 5 5 6 6 7 7 6 4 5 7 8 9 10 10
4 5 5 3 4 3 4 5 3 5 5 5 6 6 6 3 3 4 3 4 3 5 4 4 3 5 9 7 5 4 6 6 7 8 7 7 8 7 7 8 9 9 9 8
4 3 4 4 4 5 5 8 5 4 5 4 4 4 3 2 3 3 3 4 5 4 3 1 4 8 6 7 7 6 6 6 7 7 7 9 10 11 9 9 8 8 8 7
3 5 7 5 6 6 4 4 2 4 3 6 7 4 3 2 4 2 5 2 3 4 4 4 5 8 7 6 5 6 6 7 8 9 9 9 9 9 9 8 7 7 7 6
5 4 5 7 2 2 4 2 3 3 2 2 3 3 3 4 3 3 3 4 4 2 4 4 8 9 7 5 6 7 7 7 8 8 9 9 9 8 9 7 7 7 6 6
1 1 2 1 3 3 3 2 2 1 1 1 2 2 3 4 2 4 4 4 2 4 4 6 8 8 7 7 8 8 7 8 8 8 8 8 7 7 8 6 6 5 5 5
3 2 0 3 2 2 3 0 2 1 1 2 3 3 1 2 2 3 1 3 4 6 6 6 8 9 9 9 9 8 8 8 8 8 7 7 6 6 5 5 5 5 5 4
Wind_Direction
173 172 181 185 322 312 270 255 186 25 317 177 216 157 57 349 79 199 274 294 291 292 309 289 279 272 278 342 333 317 348 300 263 236 229 235 260 224 230 250 267 263 284 61
166 154 141 70 3 319 281 272 91 135 279 144 148 118 132 22 195 8 251 272 305 323 303 299 284 300 300 288 294 294 3 299 266 249 254 222 225 249 220 220 253 270 283 152
160 145 174 212 338 331 292 231 134 143 196 54 93 136 150 151 136 112 282 328 254 313 323 300 286 295 281 309 285 113 271 261 281 278 345 329 279 238 198 218 240 275 263 303
149 151 192 200 90 318 286 14 262 29 156 148 126 187 212 165 222 191 234 149 226 288 306 312 297 323 328 309 247 239 239 262 280 285 279 277 142 275 213 218 222 261 293 308
160 166 191 216 134 275 285 155 195 206 123 131 202 139 186 246 135 261 112 257 282 320 292 300 309 306 301 300 301 325 186 274 290 290 263 239 297 312 283 257 278 275 277 277
167 178 186 197 227 252 104 310 312 280 113 184 216 154 154 214 277 243 247 289 326 301 316 315 299 294 284 276 273 278 285 294 299 291 219 184 231 247 247 229 265 280 321 4
171 183 185 193 219 263 320 162 268 195 207 213 186 169 239 256 275 281 291 298 285 290 323 304 278 262 254 251 248 248 232 272 253 273 176 193 149 305 4 287 67 27 20 41
176 181 184 194 201 254 300 137 280 294 259 213 177 231 253 265 255 240 271 298 320 322 298 289 289 276 260 239 229 229 224 236 283 277 172 121 158 78 36 331 90 51 358 1
185 181 177 186 193 215 275 106 334 348 306 218 17 244 251 285 295 259 246 296 325 294 282 278 268 276 290 223 181 203 186 215 235 301 205 161 105 85 354 303 165 10 357 1
194 184 176 173 178 199 261 70 271 280 292 184 230 296 351 14 296 288 322 353 302 339 285 275 280 298 266 258 155 178 199 210 233 265 286 98 6 347 311 262 38 3 11 15
180 182 185 185 185 194 228 170 191 258 266 274 224 261 255 223 236 295 337 308 24 301 287 308 9 260 312 281 69 165 198 224 217 236 264 139 353 51 6 346 17 22 36 47
179 180 190 196 201 194 209 223 196 214 271 310 333 297 291 287 296 311 317 309 305 330 312 355 309 282 339 323 147 30 73 11 314 31 46 45 33 49 25 13 41 43 68 79
181 169 170 181 178 187 203 185 130 193 287 277 235 238 216 223 239 257 269 243 61 8 275 323 298 296 343 346 9 34 66 17 33 300 44 52 38 48 46 43 60 63 75 85
174 172 178 185 194 190 206 218 198 235 267 281 103 41 269 247 238 222 234 268 312 305 284 308 282 293 336 336 321 11 352 336 336 107 108 100 63 38 56 73 80 79 71 78
179 183 182 190 196 198 214 238 250 245 280 325 311 315 268 217 219 221 223 240 264 286 302 269 274 299 333 315 280 48 4 5 347 22 2 66 51 46 43 62 70 80 88 85
182 185 187 197 205 207 198 261 213 224 252 275 271 359 243 236 229 225 220 215 233 258 241 253 265 283 306 306 8 54 31 26 3 37 68 90 87 54 62 79 81 72 71 72
177 188 201 205 219 218 205 315 25 174 101 206 254 250 163 224 223 218 197 157 200 239 249 243 258 283 258 277 5 59 49 34 43 125 97 108 19 91 63 76 90 88 87 87
184 198 203 212 241 299 257 216 112 110 119 231 248 254 229 185 202 211 156 175 213 222 251 254 263 279 252 261 109 78 56 70 53 51 58 82 116 107 92 95 88 85 82 80
184 196 195 86 165 203 195 149 140 131 229 223 222 239 210 148 238 139 194 207 234 238 231 235 263 233 239 72 111 83 42 23 60 84 74 76 65 61 61 63 68 83 85 86
168 122 176 194 196 124 120 149 161 199 207 227 249 248 217 190 179 182 219 204 243 231 206 166 233 93 97 94 88 81 74 42 328 227 96 63 62 47 42 50 52 72 87 89
142 192 135 101 136 175 202 167 195 187 221 209 226 212 189 190 191 204 213 208 244 258 161 210 208 151 118 136 102 73 54 43 50 46 30 26 51 86 95 76 67 68 69 66
200 111 97 152 218 197 183 190 197 229 232 152 192 202 219 171 212 238 197 231 201 247 141 214 202 97 123 128 112 83 58 47 46 42 60 62 64 77 87 88 80 76 86 91
160 132 162 197 154 209 220 182 205 204 163 174 149 165 190 195 220 247 259 219 239 135 216 146 51 119 130 133 132 106 94 88 85 78 72 75 69 64 80 89 87 85 78 75
205 167 148 224 174 232 198 258 140 57 103 159 171 156 188 137 182 241 248 194 262 232 229 100 124 136 116 87 79 100 89 88 91 89 91 95 96 92 87 89 98 98 87 72
215 200 208 202 72 36 42 51 115 104 80 157 164 186 194 172 221 212 280 221 226 323 53 82 113 113 119 124 114 115 114 110 104 106 105 103 103 98 94 86 83 88 87 83
168 211 172 88 201 158 179 168 125 129 146 175 225 168 201 186 233 204 231 286 339 78 80 105 118 126 119 123 121 121 119 115 114 113 109 105 105 99 95 95 93 94 97 99
197 134 322 23 7 100 96 307 122 73 208 231 219 207 123 115 215 222 283 0 55 112 110 106 119 135 129 127 125 128 129 120 113 116 114 107 105 129 139 125 130 137 112 90